Volver al catálogo

SL-16 DEB

ActivoLEO
NORAD 22336·DEBRIS·🇷🇺 Russia

Lanzado Dec 25, 1992 desde Baikonur Cosmodrome

Loading…

Próximos Pases (próximas 24 horas)

TLE

ActualizadoSource: Space-Track

Época: Sep 14, 2026, 08:33 UTC

1 22336U 92093Z   26257.35685689  .00000326  00000-0  25669-3 0  9993
2 22336  71.1334  39.2735 0116954 239.9236 119.0240 13.95742765710000

Sigue SL-16 DEB en tiempo real con AllMySat

Download on the App Store